USA 164 (MILSTAR-2 3)

Last updated on June 27, 2019, 3:44 a.m. UTC

1 27168U 02001A   19177.03654852  .00000105  00000-0  00000+0 0  9990
2 27168   8.4120  33.4277 0002076  69.3745 203.1679  1.00271241  6097
UTC
Height (km)
Latitude
Longitude
Inclination
Orbital Period
UTC large
Height (km)
Speed (km/s)
/
Latitude / Longitude
Inclination (degrees)
Orbital Period (minutes)
Azimuth
Elevation
Range (km)
Doppler Factor
iOS Compass Heading
iOS Angle

Next 30 passes for location: Hong Kong

Rise time Rise Azimuth (degrees) Set time Set Azimuth (degrees) Duration Max altitude (degrees)

No matching passes for this satellites